| time (UTC) | temp F | wind direction | speed MPH | gust MPH | rain 1hr in | rain 24hr in | rain mn in | humidity % | barometer mb |
| 20260506235507 | 81 | 0.0 | 0.0 | 0.00 | 0.00 | 0.00 | 37 | 1016.7 | |
| 20260506235004 | 81 | 0.0 | 0.0 | 0.00 | 0.00 | 0.00 | 38 | 1016.7 | |
| 20260506234508 | 81 | 0.0 | 0.0 | 0.00 | 0.00 | 0.00 | 37 | 1016.7 | |
| 20260506234003 | 81 | 0.0 | 0.0 | 0.00 | 0.00 | 0.00 | 37 | 1016.7 | |
| 20260506233504 | 81 | 0.0 | 0.0 | 0.00 | 0.00 | 0.00 | 36 | 1016.7 | |
| 20260506233010 | 82 | 0.0 | 0.0 | 0.00 | 0.00 | 0.00 | 36 | 1016.7 | |
| 20260506232503 | 82 | 0.0 | 0.0 | 0.00 | 0.00 | 0.00 | 36 | 1016.7 | |
| 20260506232003 | 82 | 0.0 | 0.0 | 0.00 | 0.00 | 0.00 | 36 | 1016.8 | |
| 20260506231507 | 82 | 0.0 | 0.0 | 0.00 | 0.00 | 0.00 | 36 | 1016.8 | |
| 20260506231004 | 81 | 0.0 | 0.0 | 0.00 | 0.00 | 0.00 | 36 | 1016.8 | |
| 20260506230507 | 81 | 0.0 | 0.0 | 0.00 | 0.00 | 0.00 | 36 | 1016.8 | |
| 20260506230010 | 81 | 0.0 | 0.0 | 0.00 | 0.00 | 0.00 | 36 | 1016.9 | |
| 20260506225508 | 81 | 0.0 | 0.0 | 0.00 | 0.00 | 0.00 | 35 | 1017.0 | |
| 20260506225006 | 81 | 0.0 | 0.0 | 0.00 | 0.00 | 0.00 | 36 | 1017.0 | |
| 20260506224510 | 81 | 0.0 | 0.0 | 0.00 | 0.00 | 0.00 | 35 | 1017.0 | |
| 20260506224009 | 82 | 0.0 | 0.0 | 0.00 | 0.00 | 0.00 | 36 | 1017.1 | |
| 20260506223506 | 82 | 0.0 | 0.0 | 0.00 | 0.00 | 0.00 | 37 | 1017.1 | |
| 20260506223010 | 82 | 0.0 | 0.0 | 0.00 | 0.00 | 0.00 | 35 | 1017.2 | |
| 20260506222508 | 82 | 0.0 | 0.0 | 0.00 | 0.00 | 0.00 | 36 | 1017.2 | |
| 20260506222004 | 82 | 0.0 | 0.0 | 0.00 | 0.00 | 0.00 | 37 | 1017.3 | |
| 20260506221510 | 82 | 0.0 | 0.0 | 0.00 | 0.00 | 0.00 | 35 | 1017.4 | |
| 20260506221007 | 82 | 0.0 | 0.0 | 0.00 | 0.00 | 0.00 | 35 | 1017.5 | |
| 20260506220507 | 82 | 0.0 | 0.0 | 0.00 | 0.00 | 0.00 | 36 | 1017.6 | |
| 20260506220016 | 82 | 0.0 | 0.0 | 0.00 | 0.00 | 0.00 | 35 | 1017.7 | |
| 20260506215511 | 82 | 0.0 | 0.0 | 0.00 | 0.00 | 0.00 | 35 | 1017.8 | |
| 20260506215007 | 82 | 0.0 | 0.0 | 0.00 | 0.00 | 0.00 | 35 | 1017.9 | |
| 20260506214507 | 82 | 0.0 | 0.0 | 0.00 | 0.00 | 0.00 | 34 | 1018.0 | |
| 20260506214007 | 83 | 0.0 | 0.0 | 0.00 | 0.00 | 0.00 | 35 | 1018.0 | |
| 20260506213506 | 82 | 0.0 | 0.0 | 0.00 | 0.00 | 0.00 | 37 | 1018.1 | |
| 20260506213011 | 82 | 0.0 | 0.0 | 0.00 | 0.00 | 0.00 | 37 | 1018.1 | |
| 20260506212509 | 81 | 0.0 | 0.0 | 0.00 | 0.00 | 0.00 | 37 | 1018.1 | |
| 20260506212007 | 81 | 0.0 | 0.0 | 0.00 | 0.00 | 0.00 | 37 | 1018.1 | |
| 20260506211527 | 80 | 0.0 | 0.0 | 0.00 | 0.00 | 0.00 | 39 | 1018.2 | |
| 20260506211007 | 79 | 0.0 | 0.0 | 0.00 | 0.00 | 0.00 | 40 | 1018.2 | |
| 20260506210504 | 79 | 0.0 | 0.0 | 0.00 | 0.00 | 0.00 | 38 | 1018.3 | |
| 20260506210015 | 80 | 0.0 | 0.0 | 0.00 | 0.00 | 0.00 | 39 | 1018.4 | |
| 20260506205503 | 80 | 0.0 | 0.0 | 0.00 | 0.00 | 0.00 | 38 | 1018.4 | |
| 20260506205006 | 80 | 0.0 | 0.0 | 0.00 | 0.00 | 0.00 | 38 | 1018.4 | |
| 20260506204512 | 80 | 0.0 | 0.0 | 0.00 | 0.00 | 0.00 | 39 | 1018.5 | |
| 20260506204006 | 80 | 0.0 | 0.0 | 0.00 | 0.00 | 0.00 | 41 | 1018.6 | |
| 20260506203513 | 79 | 0.0 | 0.0 | 0.00 | 0.00 | 0.00 | 41 | 1018.6 | |
| 20260506203011 | 78 | 0.0 | 0.0 | 0.00 | 0.00 | 0.00 | 42 | 1018.7 | |
| 20260506202507 | 77 | 0.0 | 0.0 | 0.00 | 0.00 | 0.00 | 43 | 1018.7 | |
| 20260506202009 | 77 | 0.0 | 0.0 | 0.00 | 0.00 | 0.00 | 42 | 1018.8 | |
| 20260506201508 | 77 | 0.0 | 0.0 | 0.00 | 0.00 | 0.00 | 42 | 1018.9 | |
| 20260506201003 | 77 | 0.0 | 0.0 | 0.00 | 0.00 | 0.00 | 41 | 1018.9 | |
| 20260506200505 | 78 | 0.0 | 0.0 | 0.00 | 0.00 | 0.00 | 41 | 1019.1 | |
| 20260506200011 | 78 | 0.0 | 0.0 | 0.00 | 0.00 | 0.00 | 41 | 1019.2 | |
| 20260506195504 | 79 | 0.0 | 0.0 | 0.00 | 0.00 | 0.00 | 41 | 1019.2 | |
| 20260506195004 | 79 | 0.0 | 0.0 | 0.00 | 0.00 | 0.00 | 40 | 1019.2 | |
| 20260506194516 | 79 | 0.0 | 0.0 | 0.00 | 0.00 | 0.00 | 40 | 1019.3 | |
| 20260506194007 | 78 | 0.0 | 0.0 | 0.00 | 0.00 | 0.00 | 43 | 1019.3 | |
| 20260506193505 | 77 | 0.0 | 0.0 | 0.00 | 0.00 | 0.00 | 42 | 1019.4 | |
| 20260506193010 | 77 | 0.0 | 0.0 | 0.00 | 0.00 | 0.00 | 42 | 1019.5 | |
| 20260506192511 | 77 | 0.0 | 0.0 | 0.00 | 0.00 | 0.00 | 43 | 1019.6 | |
| 20260506192008 | 76 | 0.0 | 0.0 | 0.00 | 0.00 | 0.00 | 43 | 1019.6 | |
| 20260506191510 | 76 | 0.0 | 0.0 | 0.00 | 0.00 | 0.00 | 44 | 1019.6 | |
| 20260506191008 | 76 | 0.0 | 0.0 | 0.00 | 0.00 | 0.00 | 45 | 1019.8 | |
| 20260506190506 | 76 | 0.0 | 0.0 | 0.00 | 0.00 | 0.00 | 46 | 1019.9 | |
| 20260506190009 | 75 | 0.0 | 0.0 | 0.00 | 0.00 | 0.00 | 44 | 1020.0 | |
| 20260506185503 | 75 | 0.0 | 0.0 | 0.00 | 0.00 | 0.00 | 45 | 1020.1 | |
| 20260506185004 | 75 | 0.0 | 0.0 | 0.00 | 0.00 | 0.00 | 45 | 1020.1 | |
| 20260506184509 | 75 | 0.0 | 0.0 | 0.00 | 0.00 | 0.00 | 45 | 1020.1 | |
| 20260506184003 | 75 | 0.0 | 0.0 | 0.00 | 0.00 | 0.00 | 48 | 1020.2 | |
| 20260506183506 | 74 | 0.0 | 0.0 | 0.00 | 0.00 | 0.00 | 47 | 1020.2 | |
| 20260506183011 | 74 | 0.0 | 0.0 | 0.00 | 0.00 | 0.00 | 47 | 1020.2 | |
| 20260506182506 | 74 | 0.0 | 0.0 | 0.00 | 0.00 | 0.00 | 48 | 1020.2 | |
| 20260506182009 | 73 | 0.0 | 0.0 | 0.00 | 0.00 | 0.00 | 50 | 1020.4 | |
| 20260506181513 | 72 | 0.0 | 0.0 | 0.00 | 0.00 | 0.00 | 51 | 1020.4 | |
| 20260506181012 | 72 | 0.0 | 0.0 | 0.00 | 0.00 | 0.00 | 51 | 1020.5 | |
| 20260506180510 | 72 | 0.0 | 0.0 | 0.00 | 0.00 | 0.00 | 51 | 1020.4 | |
| 20260506180010 | 71 | 0.0 | 0.0 | 0.00 | 0.00 | 0.00 | 53 | 1020.5 | |
| 20260506175506 | 71 | 0.0 | 0.0 | 0.00 | 0.00 | 0.00 | 52 | 1020.5 | |
| 20260506175002 | 70 | 0.0 | 0.0 | 0.00 | 0.00 | 0.00 | 53 | 1020.6 | |
| 20260506174510 | 70 | 0.0 | 0.0 | 0.00 | 0.00 | 0.00 | 53 | 1020.5 | |
| 20260506174003 | 71 | 0.0 | 0.0 | 0.00 | 0.00 | 0.00 | 54 | 1020.6 | |
| 20260506173502 | 70 | 0.0 | 0.0 | 0.00 | 0.00 | 0.00 | 56 | 1020.6 | |
| 20260506173011 | 69 | 0.0 | 0.0 | 0.00 | 0.00 | 0.00 | 58 | 1020.5 | |
| 20260506172502 | 68 | 0.0 | 0.0 | 0.00 | 0.00 | 0.00 | 57 | 1020.6 | |
| 20260506172003 | 68 | 0.0 | 0.0 | 0.00 | 0.00 | 0.00 | 57 | 1020.6 | |
| 20260506171504 | 68 | 0.0 | 0.0 | 0.00 | 0.00 | 0.00 | 58 | 1020.6 | |
| 20260506171003 | 67 | 0.0 | 0.0 | 0.00 | 0.00 | 0.00 | 59 | 1020.6 | |
| 20260506170505 | 67 | 0.0 | 0.0 | 0.00 | 0.00 | 0.00 | 60 | 1020.7 | |
| 20260506170003 | 67 | 0.0 | 0.0 | 0.00 | 0.00 | 0.00 | 61 | 1020.6 | |
| 20260506165503 | 66 | 0.0 | 0.0 | 0.00 | 0.00 | 0.00 | 61 | 1020.6 | |
| 20260506165003 | 66 | 0.0 | 0.0 | 0.00 | 0.00 | 0.00 | 60 | 1020.7 | |
| 20260506164510 | 66 | 0.0 | 0.0 | 0.00 | 0.00 | 0.00 | 61 | 1020.7 | |
| 20260506164002 | 66 | 0.0 | 0.0 | 0.00 | 0.00 | 0.00 | 62 | 1020.7 | |
| 20260506163504 | 65 | 0.0 | 0.0 | 0.00 | 0.00 | 0.00 | 63 | 1020.7 | |
| 20260506163026 | 65 | 0.0 | 0.0 | 0.00 | 0.00 | 0.00 | 63 | 1020.7 | |
| 20260506162504 | 64 | 0.0 | 0.0 | 0.00 | 0.00 | 0.00 | 64 | 1020.7 | |
| 20260506162004 | 64 | 0.0 | 0.0 | 0.00 | 0.00 | 0.00 | 65 | 1020.7 | |
| 20260506161525 | 63 | 0.0 | 0.0 | 0.00 | 0.00 | 0.00 | 67 | 1020.7 | |
| 20260506161004 | 63 | 0.0 | 0.0 | 0.00 | 0.00 | 0.00 | 68 | 1020.7 | |
| 20260506160506 | 62 | 0.0 | 0.0 | 0.00 | 0.00 | 0.00 | 69 | 1020.7 | |
| 20260506160010 | 61 | 0.0 | 0.0 | 0.00 | 0.00 | 0.00 | 70 | 1020.7 | |
| 20260506155503 | 60 | 0.0 | 0.0 | 0.00 | 0.00 | 0.00 | 72 | 1020.7 | |
| 20260506155005 | 59 | 0.0 | 0.0 | 0.00 | 0.00 | 0.00 | 73 | 1020.7 | |
| 20260506154509 | 59 | 0.0 | 0.0 | 0.00 | 0.00 | 0.00 | 74 | 1020.8 | |
| 20260506154008 | 58 | 0.0 | 0.0 | 0.00 | 0.00 | 0.00 | 76 | 1020.8 | |
| 20260506153503 | 58 | 0.0 | 0.0 | 0.00 | 0.00 | 0.00 | 77 | 1020.8 | |
| 20260506153010 | 57 | 0.0 | 0.0 | 0.00 | 0.00 | 0.00 | 78 | 1020.8 | |
| 20260506152505 | 57 | 0.0 | 0.0 | 0.00 | 0.01 | 0.00 | 79 | 1020.8 | |
| 20260506152004 | 56 | 0.0 | 0.0 | 0.00 | 0.01 | 0.00 | 80 | 1020.8 | |
| 20260506151526 | 56 | 0.0 | 0.0 | 0.00 | 0.02 | 0.00 | 81 | 1020.8 | |
| 20260506151003 | 55 | 0.0 | 0.0 | 0.00 | 0.02 | 0.00 | 82 | 1020.8 | |
| 20260506150507 | 55 | 0.0 | 0.0 | 0.00 | 0.02 | 0.00 | 83 | 1020.8 | |
| 20260506150014 | 55 | 0.0 | 0.0 | 0.00 | 0.02 | 0.00 | 84 | 1020.7 | |
| 20260506145505 | 54 | 0.0 | 0.0 | 0.00 | 0.03 | 0.00 | 85 | 1020.7 | |
| 20260506145005 | 54 | 0.0 | 0.0 | 0.00 | 0.03 | 0.00 | 86 | 1020.7 | |
| 20260506144503 | 53 | 0.0 | 0.0 | 0.00 | 0.03 | 0.00 | 86 | 1020.7 | |
| 20260506144003 | 53 | 0.0 | 0.0 | 0.00 | 0.03 | 0.00 | 87 | 1020.7 | |
| 20260506143506 | 53 | 0.0 | 0.0 | 0.00 | 0.03 | 0.00 | 87 | 1020.6 | |
| 20260506143008 | 53 | 0.0 | 0.0 | 0.00 | 0.03 | 0.00 | 88 | 1020.6 | |
| 20260506142503 | 52 | 0.0 | 0.0 | 0.00 | 0.03 | 0.00 | 88 | 1020.6 | |
| 20260506142003 | 52 | 0.0 | 0.0 | 0.00 | 0.03 | 0.00 | 88 | 1020.5 | |
| 20260506141514 | 52 | 0.0 | 0.0 | 0.00 | 0.03 | 0.00 | 88 | 1020.6 | |
| 20260506141003 | 51 | 0.0 | 0.0 | 0.00 | 0.03 | 0.00 | 88 | 1020.5 | |
| 20260506140507 | 51 | 0.0 | 0.0 | 0.00 | 0.03 | 0.00 | 88 | 1020.4 | |
| 20260506140010 | 51 | 0.0 | 0.0 | 0.00 | 0.03 | 0.00 | 88 | 1020.3 | |
| 20260506135503 | 51 | 0.0 | 0.0 | 0.00 | 0.03 | 0.00 | 88 | 1020.2 | |
| 20260506135008 | 50 | 0.0 | 0.0 | 0.00 | 0.03 | 0.00 | 87 | 1020.1 | |
| 20260506134515 | 50 | 0.0 | 0.0 | 0.00 | 0.03 | 0.00 | 87 | 1020.0 | |
| 20260506134009 | 50 | 0.0 | 0.0 | 0.00 | 0.03 | 0.00 | 87 | 1020.0 | |
| 20260506133508 | 50 | 0.0 | 0.0 | 0.00 | 0.03 | 0.00 | 87 | 1019.9 | |
| 20260506133004 | 50 | 0.0 | 0.0 | 0.00 | 0.03 | 0.00 | 87 | 1019.8 | |
| 20260506132502 | 50 | 0.0 | 0.0 | 0.00 | 0.03 | 0.00 | 86 | 1019.8 | |
| 20260506132003 | 50 | 0.0 | 0.0 | 0.00 | 0.03 | 0.00 | 86 | 1019.8 | |
| 20260506131509 | 50 | 0.0 | 0.0 | 0.00 | 0.03 | 0.00 | 86 | 1019.8 | |
| 20260506131003 | 50 | 0.0 | 0.0 | 0.00 | 0.03 | 0.00 | 86 | 1019.8 | |
| 20260506130504 | 50 | 0.0 | 0.0 | 0.00 | 0.03 | 0.00 | 86 | 1019.8 | |
| 20260506130014 | 49 | 0.0 | 0.0 | 0.00 | 0.03 | 0.00 | 85 | 1019.8 | |
| 20260506125507 | 49 | 0.0 | 0.0 | 0.00 | 0.03 | 0.00 | 85 | 1019.7 | |
| 20260506125006 | 49 | 0.0 | 0.0 | 0.00 | 0.03 | 0.00 | 84 | 1019.7 | |
| 20260506124514 | 49 | 0.0 | 0.0 | 0.00 | 0.03 | 0.00 | 84 | 1019.6 | |
| 20260506124006 | 49 | 0.0 | 0.0 | 0.00 | 0.03 | 0.00 | 83 | 1019.5 | |
| 20260506123507 | 49 | 0.0 | 0.0 | 0.00 | 0.03 | 0.00 | 83 | 1019.5 | |
| 20260506123012 | 50 | 0.0 | 0.0 | 0.00 | 0.03 | 0.00 | 83 | 1019.6 | |
| 20260506122508 | 50 | 0.0 | 0.0 | 0.00 | 0.03 | 0.00 | 83 | 1019.5 | |
| 20260506122005 | 50 | 0.0 | 0.0 | 0.00 | 0.03 | 0.00 | 83 | 1019.4 | |
| 20260506121512 | 50 | 0.0 | 0.0 | 0.00 | 0.03 | 0.00 | 83 | 1019.3 | |
| 20260506121003 | 50 | 0.0 | 0.0 | 0.00 | 0.03 | 0.00 | 83 | 1019.3 | |
| 20260506120503 | 50 | 0.0 | 0.0 | 0.00 | 0.03 | 0.00 | 83 | 1019.2 | |
| 20260506120010 | 50 | 0.0 | 0.0 | 0.00 | 0.03 | 0.00 | 83 | 1019.2 | |
| 20260506115506 | 50 | 0.0 | 0.0 | 0.00 | 0.03 | 0.00 | 83 | 1019.2 | |
| 20260506115004 | 50 | 0.0 | 0.0 | 0.00 | 0.03 | 0.00 | 83 | 1019.2 | |
| 20260506114532 | 51 | 0.0 | 0.0 | 0.00 | 0.03 | 0.00 | 83 | 1019.2 | |
| 20260506114007 | 51 | 0.0 | 0.0 | 0.00 | 0.03 | 0.00 | 83 | 1019.2 | |
| 20260506113507 | 51 | 0.0 | 0.0 | 0.00 | 0.03 | 0.00 | 83 | 1019.2 | |
| 20260506113012 | 51 | 0.0 | 0.0 | 0.00 | 0.03 | 0.00 | 82 | 1019.2 | |
| 20260506112514 | 51 | 0.0 | 0.0 | 0.00 | 0.03 | 0.00 | 82 | 1019.1 | |
| 20260506112010 | 51 | 0.0 | 0.0 | 0.00 | 0.03 | 0.00 | 82 | 1019.1 | |
| 20260506111514 | 51 | 0.0 | 0.0 | 0.00 | 0.03 | 0.00 | 82 | 1019.1 | |
| 20260506111010 | 51 | 0.0 | 0.0 | 0.00 | 0.03 | 0.00 | 82 | 1019.1 | |
| 20260506110509 | 51 | 0.0 | 0.0 | 0.00 | 0.03 | 0.00 | 82 | 1019.1 | |
| 20260506110013 | 51 | 0.0 | 0.0 | 0.00 | 0.03 | 0.00 | 82 | 1019.1 | |
| 20260506105511 | 52 | 0.0 | 0.0 | 0.00 | 0.03 | 0.00 | 82 | 1019.0 | |
| 20260506105005 | 52 | 0.0 | 0.0 | 0.00 | 0.03 | 0.00 | 82 | 1018.9 | |
| 20260506104510 | 52 | 0.0 | 0.0 | 0.00 | 0.03 | 0.00 | 82 | 1018.9 | |
| 20260506104004 | 52 | 0.0 | 0.0 | 0.00 | 0.03 | 0.00 | 82 | 1019.0 | |
| 20260506103507 | 52 | 0.0 | 0.0 | 0.00 | 0.03 | 0.00 | 82 | 1019.0 | |
| 20260506103018 | 52 | 0.0 | 0.0 | 0.00 | 0.03 | 0.00 | 82 | 1019.0 | |
| 20260506102507 | 52 | 0.0 | 0.0 | 0.00 | 0.03 | 0.00 | 82 | 1019.1 | |
| 20260506102008 | 52 | 0.0 | 0.0 | 0.00 | 0.03 | 0.00 | 82 | 1018.9 | |
| 20260506101524 | 52 | 0.0 | 0.0 | 0.00 | 0.03 | 0.00 | 82 | 1018.9 | |
| 20260506101007 | 52 | 0.0 | 0.0 | 0.00 | 0.03 | 0.00 | 82 | 1018.8 | |
| 20260506100508 | 53 | 0.0 | 0.0 | 0.00 | 0.03 | 0.00 | 82 | 1018.8 | |
| 20260506100027 | 53 | 0.0 | 0.0 | 0.00 | 0.03 | 0.00 | 82 | 1018.7 | |
| 20260506095511 | 53 | 0.0 | 0.0 | 0.00 | 0.03 | 0.00 | 82 | 1018.7 | |
| 20260506095009 | 53 | 0.0 | 0.0 | 0.00 | 0.03 | 0.00 | 82 | 1018.7 | |
| 20260506094528 | 53 | 0.0 | 0.0 | 0.00 | 0.03 | 0.00 | 82 | 1018.7 | |
| 20260506094008 | 53 | 0.0 | 0.0 | 0.00 | 0.03 | 0.00 | 82 | 1018.7 | |
| 20260506093507 | 53 | 0.0 | 0.0 | 0.00 | 0.03 | 0.00 | 81 | 1018.7 | |
| 20260506093016 | 53 | 0.0 | 0.0 | 0.00 | 0.03 | 0.00 | 81 | 1018.6 | |
| 20260506092507 | 53 | 0.0 | 0.0 | 0.00 | 0.03 | 0.00 | 81 | 1018.6 | |
| 20260506092008 | 53 | 0.0 | 0.0 | 0.00 | 0.03 | 0.00 | 81 | 1018.5 | |
| 20260506091523 | 53 | 0.0 | 0.0 | 0.00 | 0.03 | 0.00 | 81 | 1018.5 | |
| 20260506091008 | 53 | 0.0 | 0.0 | 0.00 | 0.03 | 0.00 | 81 | 1018.6 | |
| 20260506090510 | 53 | 0.0 | 0.0 | 0.00 | 0.03 | 0.00 | 81 | 1018.7 | |
| 20260506090023 | 53 | 0.0 | 0.0 | 0.00 | 0.03 | 0.00 | 81 | 1018.7 | |
| 20260506085507 | 53 | 0.0 | 0.0 | 0.00 | 0.03 | 0.00 | 81 | 1018.7 | |
| 20260506085004 | 53 | 0.0 | 0.0 | 0.00 | 0.03 | 0.00 | 81 | 1018.7 | |
| 20260506084508 | 53 | 0.0 | 0.0 | 0.00 | 0.03 | 0.00 | 81 | 1018.7 | |
| 20260506084004 | 53 | 0.0 | 0.0 | 0.00 | 0.03 | 0.00 | 81 | 1018.7 | |
| 20260506083504 | 53 | 0.0 | 0.0 | 0.00 | 0.03 | 0.00 | 81 | 1018.7 | |
| 20260506083014 | 53 | 0.0 | 0.0 | 0.00 | 0.03 | 0.00 | 81 | 1018.7 | |
| 20260506082504 | 53 | 0.0 | 0.0 | 0.00 | 0.03 | 0.00 | 82 | 1018.6 | |
| 20260506082007 | 53 | 0.0 | 0.0 | 0.00 | 0.03 | 0.00 | 82 | 1018.7 | |
| 20260506081511 | 53 | 0.0 | 0.0 | 0.00 | 0.03 | 0.00 | 82 | 1018.6 | |
| 20260506081004 | 53 | 0.0 | 0.0 | 0.00 | 0.03 | 0.00 | 82 | 1018.7 | |
| 20260506080507 | 53 | 0.0 | 0.0 | 0.00 | 0.03 | 0.00 | 82 | 1018.6 | |
| 20260506073506 | 53 | 0.0 | 0.0 | 0.00 | 0.03 | 0.00 | 81 | 1018.4 | |
| 20260506073010 | 53 | 0.0 | 0.0 | 0.00 | 0.03 | 0.00 | 81 | 1018.4 | |
| 20260506072504 | 52 | 0.0 | 0.0 | 0.00 | 0.03 | 0.00 | 80 | 1018.4 | |
| 20260506072005 | 52 | 0.0 | 0.0 | 0.00 | 0.03 | 0.00 | 80 | 1018.3 | |
| 20260506071513 | 52 | 0.0 | 0.0 | 0.00 | 0.03 | 0.00 | 79 | 1018.3 | |
| 20260506071004 | 52 | 0.0 | 0.0 | 0.00 | 0.03 | 0.00 | 79 | 1018.3 | |
| 20260506070508 | 52 | 0.0 | 0.0 | 0.00 | 0.03 | 0.00 | 78 | 1018.2 | |
| 20260506062505 | 54 | 0.0 | 0.0 | 0.00 | 0.03 | 0.03 | 76 | 1017.8 | |
| 20260506062003 | 54 | 0.0 | 0.0 | 0.00 | 0.03 | 0.03 | 75 | 1017.7 | |
| 20260506061517 | 54 | 0.0 | 0.0 | 0.00 | 0.03 | 0.03 | 75 | 1017.6 | |
| 20260506061007 | 54 | 0.0 | 0.0 | 0.00 | 0.03 | 0.03 | 75 | 1017.5 | |
| 20260506060505 | 55 | 0.0 | 0.0 | 0.00 | 0.03 | 0.03 | 74 | 1017.5 | |
| 20260506051005 | 57 | 0.0 | 0.0 | 0.00 | 0.03 | 0.03 | 73 | 1017.2 | |
| 20260506050502 | 57 | 0.0 | 0.0 | 0.00 | 0.03 | 0.03 | 72 | 1017.2 | |
| 20260506045002 | 58 | 0.0 | 0.0 | 0.00 | 0.03 | 0.03 | 72 | 1017.1 | |
| 20260506044505 | 58 | 0.0 | 0.0 | 0.00 | 0.03 | 0.03 | 72 | 1017.1 | |
| 20260506044002 | 58 | 0.0 | 0.0 | 0.00 | 0.03 | 0.03 | 72 | 1017.0 | |
| 20260506043503 | 58 | 0.0 | 0.0 | 0.00 | 0.03 | 0.03 | 72 | 1016.9 | |
| 20260506043003 | 58 | 0.0 | 0.0 | 0.00 | 0.03 | 0.03 | 72 | 1017.0 | |
| 20260506042505 | 58 | 0.0 | 0.0 | 0.00 | 0.03 | 0.03 | 71 | 1016.9 | |
| 20260506042003 | 58 | 0.0 | 0.0 | 0.00 | 0.03 | 0.03 | 71 | 1016.8 | |
| 20260506041508 | 59 | 0.0 | 0.0 | 0.00 | 0.03 | 0.03 | 71 | 1016.8 | |
| 20260506041009 | 59 | 0.0 | 0.0 | 0.00 | 0.03 | 0.03 | 70 | 1016.7 | |
| 20260506040503 | 59 | 0.0 | 0.0 | 0.00 | 0.03 | 0.03 | 70 | 1016.6 | |
| 20260506040033 | 59 | 0.0 | 0.0 | 0.00 | 0.03 | 0.03 | 70 | 1016.6 | |
| 20260506035503 | 59 | 0.0 | 0.0 | 0.00 | 0.03 | 0.03 | 70 | 1016.6 | |
| 20260506035002 | 59 | 0.0 | 0.0 | 0.00 | 0.03 | 0.03 | 69 | 1016.5 | |
| 20260506034515 | 60 | 0.0 | 0.0 | 0.00 | 0.03 | 0.03 | 69 | 1016.4 | |
| 20260506034001 | 60 | 0.0 | 0.0 | 0.00 | 0.03 | 0.03 | 69 | 1016.4 | |
| 20260506033502 | 60 | 0.0 | 0.0 | 0.00 | 0.03 | 0.03 | 69 | 1016.4 | |
| 20260506033005 | 60 | 0.0 | 0.0 | 0.00 | 0.03 | 0.03 | 68 | 1016.3 | |
| 20260506032503 | 60 | 0.0 | 0.0 | 0.00 | 0.03 | 0.03 | 68 | 1016.2 | |
| 20260506032003 | 60 | 0.0 | 0.0 | 0.00 | 0.03 | 0.03 | 68 | 1016.2 | |
| 20260506031512 | 60 | 0.0 | 0.0 | 0.00 | 0.03 | 0.03 | 67 | 1016.1 | |
| 20260506031003 | 60 | 0.0 | 0.0 | 0.00 | 0.03 | 0.03 | 67 | 1016.1 | |
| 20260506030502 | 61 | 0.0 | 0.0 | 0.00 | 0.03 | 0.03 | 67 | 1016.0 | |
| 20260506030008 | 61 | 0.0 | 0.0 | 0.00 | 0.03 | 0.03 | 67 | 1016.0 | |
| 20260506025504 | 61 | 0.0 | 0.0 | 0.00 | 0.03 | 0.03 | 67 | 1015.9 | |
| 20260506025004 | 61 | 0.0 | 0.0 | 0.00 | 0.03 | 0.03 | 67 | 1015.8 | |
| 20260506024518 | 61 | 0.0 | 0.0 | 0.00 | 0.03 | 0.03 | 67 | 1015.8 | |
| 20260506024003 | 61 | 0.0 | 0.0 | 0.00 | 0.03 | 0.03 | 67 | 1015.7 | |
| 20260506023507 | 61 | 0.0 | 0.0 | 0.00 | 0.03 | 0.03 | 67 | 1015.6 | |
| 20260506023016 | 61 | 0.0 | 0.0 | 0.00 | 0.03 | 0.03 | 67 | 1015.6 | |
| 20260506022503 | 61 | 0.0 | 0.0 | 0.00 | 0.03 | 0.03 | 67 | 1015.6 | |
| 20260506022004 | 61 | 0.0 | 0.0 | 0.00 | 0.03 | 0.03 | 67 | 1015.5 | |
| 20260506021504 | 61 | 0.0 | 0.0 | 0.00 | 0.03 | 0.03 | 67 | 1015.5 | |
| 20260506021003 | 61 | 0.0 | 0.0 | 0.00 | 0.03 | 0.03 | 67 | 1015.4 | |
| 20260506020511 | 61 | 0.0 | 0.0 | 0.00 | 0.03 | 0.03 | 68 | 1015.4 | |
| 20260506020008 | 61 | 0.0 | 0.0 | 0.00 | 0.03 | 0.03 | 68 | 1015.3 | |
| 20260506015503 | 61 | 0.0 | 0.0 | 0.00 | 0.03 | 0.03 | 69 | 1015.2 | |
| 20260506015003 | 61 | 0.0 | 0.0 | 0.00 | 0.03 | 0.03 | 69 | 1015.2 | |
| 20260506014513 | 61 | 0.0 | 0.0 | 0.00 | 0.03 | 0.03 | 69 | 1015.2 | |
| 20260506014003 | 61 | 0.0 | 0.0 | 0.00 | 0.03 | 0.03 | 69 | 1015.2 | |
| 20260506013507 | 61 | 0.0 | 0.0 | 0.00 | 0.03 | 0.03 | 70 | 1015.2 | |
| 20260506013012 | 61 | 0.0 | 0.0 | 0.00 | 0.03 | 0.03 | 70 | 1015.1 | |
| 20260506012504 | 61 | 0.0 | 0.0 | 0.00 | 0.03 | 0.03 | 70 | 1015.1 | |
| 20260506012006 | 61 | 0.0 | 0.0 | 0.00 | 0.03 | 0.03 | 71 | 1015.1 | |
| 20260506011513 | 61 | 0.0 | 0.0 | 0.00 | 0.03 | 0.03 | 71 | 1015.1 | |
| 20260506011003 | 61 | 0.0 | 0.0 | 0.00 | 0.03 | 0.03 | 71 | 1015.1 | |
| 20260506010506 | 61 | 0.0 | 0.0 | 0.00 | 0.03 | 0.03 | 71 | 1015.2 | |
| 20260506010011 | 61 | 0.0 | 0.0 | 0.00 | 0.03 | 0.03 | 71 | 1015.3 | |
| 20260506005504 | 61 | 0.0 | 0.0 | 0.00 | 0.03 | 0.03 | 71 | 1015.2 | |
| 20260506005006 | 61 | 0.0 | 0.0 | 0.00 | 0.03 | 0.03 | 71 | 1015.2 | |
| 20260506004521 | 61 | 0.0 | 0.0 | 0.00 | 0.03 | 0.03 | 71 | 1015.2 | |
| 20260506004006 | 61 | 0.0 | 0.0 | 0.00 | 0.03 | 0.03 | 71 | 1015.2 | |
| 20260506003507 | 61 | 0.0 | 0.0 | 0.00 | 0.03 | 0.03 | 71 | 1015.2 | |
| 20260506003016 | 61 | 0.0 | 0.0 | 0.00 | 0.03 | 0.03 | 70 | 1015.2 | |
| 20260506002504 | 61 | 0.0 | 0.0 | 0.00 | 0.03 | 0.03 | 70 | 1015.2 | |
| 20260506002009 | 61 | 0.0 | 0.0 | 0.00 | 0.03 | 0.03 | 70 | 1015.2 | |
| 20260506001516 | 61 | 0.0 | 0.0 | 0.00 | 0.03 | 0.03 | 70 | 1015.2 | |
| 20260506001004 | 61 | 0.0 | 0.0 | 0.00 | 0.03 | 0.03 | 71 | 1015.2 | |
| 20260506000508 | 61 | 0.0 | 0.0 | 0.00 | 0.03 | 0.03 | 71 | 1015.1 | |
| 20260506000014 | 61 | 0.0 | 0.0 | 0.00 | 0.03 | 0.03 | 72 | 1015.1 |